Regional Weather Roundup
Issued by NWS

Home | Current Version | Previous Version | Graphics & Text | Print | Product List | Glossary On
Versions: 1 2 3 4 5 6 7 8 9 10 11 12 13 14 15 16 17 18 19 20 21 22 23 24 25 26 27 28 29 30 31 32 33 34 35 36 37 38 39 40 41 42 43 44 45 46 47 48 49 50
000
ASUS43 KDTX 181901
RWRMI
MICHIGAN HOURLY REGIONAL WEATHER ROUNDUP
NATIONAL WEATHER SERVICE DETROIT/PONTIAC MI
200 PM EST THU JAN 18 2018

NOTE: "FAIR" INDICATES FEW OR NO CLOUDS BELOW 12,000 FEET WITH NO
SIGNIFICANT WEATHER AND/OR OBSTRUCTION TO VISIBILITY.

MIZ047>049-052>055-059>063-066>070-074>076-081>083-182000-
SOUTHEAST LOWER MICHIGAN

CITY           SKY/WX    TMP DP  RH WIND       PRES   REMARKS
ADRIAN         FAIR      25  14  63 W13       30.08F WCI  14
ALMA           CLOUDY    29  23  79 SW15      29.95F WCI  18
ANN ARBOR      FAIR      26  15  63 S15       30.04F WCI  14
BAD AXE        PTSUNNY   26  20  78 SW21G26   29.92F WCI  12
CARO           FAIR      26  20  77 SW15G22   29.94F WCI  14
DETROIT CITY   FAIR      26  14  60 W14       30.04F WCI  14
DETROIT        FAIR      27  15  61 SW15      30.06F WCI  15
FLINT          FAIR      25  16  68 SW10      29.98F WCI  15
GROSSE ILE     FAIR      26  15  63 SW14      30.06F WCI  14
HILLSDALE      FAIR      28  14  54 SW15      30.03F WCI  17
HOWELL         FAIR      27  16  64 SW9       29.98F WCI  18

CITY           SKY/WX    TMP DP  RH WIND       PRES   REMARKS
JACKSON        FAIR      26  15  63 S13       30.01F WCI  15
LAMBERTVILLE   FAIR      26  14  61 W13G22    30.09S WCI  14
LANSING        FAIR      27  17  66 SW16      29.99F WCI  15
LAPEER         FAIR      28  18  66 SW9       29.97F WCI  19
MASON          FAIR      28  13  54 S7        29.98F WCI  20
MONROE         FAIR      24  13  62 SW18      30.07F WCI  10
MT. CLEMENS    MOSUNNY   30  14  51 SW15      29.99F WCI  19
PONTIAC        FAIR      27  15  61 SW13      29.98F WCI  16
PORT HOPE        N/A     27  20  75 SW10G21   29.90F WCI  17
PORT HURON     FAIR      27  14  59 S12       30.00F WCI  16
TRI CITIES     CLOUDY    28  23  81 SW25      29.94F WCI  13
MIDLAND        CLOUDY    31  23  74 SW14G23   29.92F WCI  20
TROY           FAIR      29  15  57 SW12      30.03F WCI  19
SAGINAW HB     FAIR      28  21  74 SW16G24   29.95F WCI  17
$$
MIZ043>046-050>051-056>058-064>065-071>073-077>080-182000-
SOUTHWEST LOWER MICHIGAN

CITY           SKY/WX    TMP DP  RH WIND       PRES   REMARKS
BATTLE CREEK   FAIR      26  15  63 SW17      30.01F WCI  13
BENTON HARBOR  FAIR      29  15  56 SW14G22   30.05F WCI  18
BIG RAPIDS     CLOUDY    29  22  75 SW16G23   29.90F WCI  18
COLDWATER      FAIR      25  15  65 SW13      30.05F WCI  14
FREMONT        CLOUDY    30  22  72 SW15G22   29.94F WCI  19
HOLLAND        FAIR      29  22  75 SW20G29   30.00F WCI  16
GRAND RAPIDS   PTSUNNY   29  21  72 SW14      29.99F WCI  18
IONIA          FAIR      29  22  75 SW15      29.97F WCI  18
KALAMAZOO      FAIR      27  15  61 SW13G21   30.03F WCI  16
LUDINGTON      CLOUDY    29  26  86 S13G25    29.90F WCI  19
MARSHALL       FAIR      26  14  59 S13       30.01F WCI  15
MOUNT PLEASANT FAIR      31  23  72 SW12G18   29.92F WCI  21
MUSKEGON       CLOUDY    30  23  75 SW18G26   29.98F WCI  18
SOUTH HAVEN    FAIR      28  17  64 SW16G26   30.02F WCI  16
$$
MIZ016>042-182000-
NORTHERN LOWER MICHIGAN

CITY           SKY/WX    TMP DP  RH WIND       PRES   REMARKS
ALPENA         FAIR      28  22  78 S5        29.85F WCI  23
BEAVER ISLAND  CLOUDY    32  28  85 SW15G24   29.78F WCI  22
BELLAIRE       FAIR      32  26  77 S7        29.84F WCI  26
CADILLAC       FAIR      29  24  78 SW13G23   29.84F WCI  19
CHARLEVOIX     FAIR      32  26  78 S7        29.83F WCI  26
FRANKFORT      CLOUDY    32  28  86 S17G25    29.85F WCI  21
GAYLORD        FAIR      29  24  82 SW15      29.79F WCI  18
GRAYLING       FAIR      30  21  70 S9G16     29.84F WCI  21
HARBOR SPRINGS CLOUDY    31  25  78 SW9       29.80F WCI  23
HOUGHTON LAKE  FAIR      29  22  75 SW8       29.85F WCI  21
MANISTEE       FAIR      33  25  72 S9        29.88F WCI  25
OSCODA         FAIR      29  20  68 SW13      29.88S WCI  19
PELLSTON       CLOUDY    31  25  78 SW10      29.80F WCI  22
ROGERS CITY    FAIR      31  23  71 S9        29.83F WCI  23
TRAVERSE CITY  CLOUDY    34  25  69 S9        29.83F WCI  27
$$
MIZ007>008-015-182000-
EASTERN UPPER MICHIGAN

CITY           SKY/WX    TMP DP  RH WIND       PRES   REMARKS
KINROSS        FAIR      31  24  75 SW8       29.77F WCI  23
MACKINAC ISLAN CLOUDY    31  26  83 SW8       29.79F WCI  23
NEWBERRY       CLOUDY    28  27  96 S17G28    29.69F WCI  16
S. S. MARIE    CLOUDY    31  21  66 SE9       29.75F WCI  23
MUNISING         N/A     27  20  75 SW9G17    29.71S WCI  18
$$
MIZ004>006-011>014-085-182000-
CENTRAL UPPER MICHIGAN

CITY           SKY/WX    TMP DP  RH WIND       PRES   REMARKS
MANISTIQUE     CLOUDY    26  25  94 SW17G23   29.74F WCI  14
ESCANABA       FAIR      27  20  75 SW7       29.74F WCI  19
MENOMINEE      FAIR      29  19  66 SW14G20   29.77F WCI  18
SAWYER-GWINN   CLOUDY    25  18  74 SW10      29.68S WCI  15
$$
MIZ001>003-009>011-084-182000-
WESTERN UPPER MICHIGAN

CITY           SKY/WX    TMP DP  RH WIND       PRES   REMARKS
IRON MOUNTAIN  CLOUDY    34  21  59 W13G20    29.68F WCI  25
HOUGHTON       CLOUDY    32  25  75 W20       29.64S WCI  20
COPPER HARBOR    N/A     31  22  69 W5        29.66S WCI  26
IRONWOOD       CLOUDY    32  22  66 W13       29.71F WCI  22
$$

ABBREVIATIONS USED IN REMARKS
   TC - TEMPERATURE IN CELSIUS
  WCI - WIND CHILL INDEX
   HX - HEAT INDEX
  VSB - VISIBILITY





USA.gov is the U.S. government's official web portal to all federal, state and local government web resources and services.